Theta_e
291 291 291 294 294 294 294 294 293 292 293 292 289 290 293 292 287 285 290 290 289 291 294 296 296 294 292 292 292 291 292 291 291 292 292 293 294 294 293 293 294 294 294 294 293 292 293 291 292 291 291 292 290 290 291 291 290 293 290 292 294 296 297 298 298 296 296 295 297 298 298 299 299 300 299 298 297 297 298 300 303 302 303 306 304 303 302
289 290 291 293 293 292 293 293 293 294 293 292 293 293 294 293 290 292 292 291 291 294 295 296 295 297 295 292 290 290 290 290 290 291 292 293 294 294 294 293 294 294 295 294 293 293 291 293 293 292 293 293 294 294 294 292 292 291 292 295 296 297 297 298 296 295 296 295 296 296 297 297 297 296 296 296 294 295 296 296 296 296 298 298 300 302 300
286 289 291 290 291 292 290 292 293 294 294 294 294 294 294 294 293 293 293 291 291 296 298 295 294 297 296 295 294 293 292 291 291 291 292 293 294 294 294 294 294 295 295 295 293 291 293 294 294 295 295 295 293 293 294 294 294 294 295 297 297 297 297 296 295 296 295 293 292 293 293 294 293 294 295 292 292 293 293 293 294 294 295 296 295 295 298
285 288 288 288 289 289 289 290 291 292 292 290 292 291 294 292 290 292 291 289 290 296 299 294 295 292 294 294 293 292 292 291 292 291 292 293 294 294 294 295 294 293 295 296 295 295 294 294 294 294 294 294 293 294 294 295 296 296 297 297 297 296 295 294 294 295 293 292 291 291 290 291 291 291 290 291 292 292 291 291 291 291 292 295 295 294 295
284 288 288 287 287 286 285 286 291 293 293 294 295 295 296 294 295 290 288 289 296 296 295 296 297 295 294 294 295 295 295 293 293 293 293 294 294 295 295 295 294 294 295 297 297 297 295 295 295 295 295 293 294 294 294 295 295 296 297 297 296 296 293 293 292 290 290 291 291 289 289 289 288 288 289 290 290 290 290 290 289 290 292 292 292 291 292
285 287 287 287 284 278 280 293 296 296 293 293 291 292 294 295 296 294 296 296 298 296 295 293 294 294 297 297 297 300 300 298 294 293 295 296 296 296 296 296 295 296 296 296 297 297 297 297 297 295 294 295 295 293 293 292 294 296 296 295 295 294 292 291 291 290 289 290 290 289 288 288 288 288 288 289 288 289 288 288 289 290 290 290 290 291 291
284 285 286 282 277 279 292 295 297 298 297 296 294 295 296 296 297 297 296 296 297 297 296 295 295 295 297 298 298 298 297 298 297 295 295 295 296 296 296 295 294 295 296 297 296 295 294 294 292 292 292 292 289 289 290 292 293 295 295 295 294 293 291 290 290 289 289 289 289 288 287 287 288 288 288 288 288 288 288 289 289 290 290 290 290 290 290
286 283 283 277 278 288 294 295 297 298 298 297 295 293 295 297 297 297 296 297 298 298 298 298 296 294 295 295 296 299 299 296 297 296 296 296 296 296 297 296 296 295 295 296 297 297 295 292 291 294 295 292 291 291 289 291 291 293 293 293 293 291 291 290 290 289 289 289 288 287 287 287 287 288 287 288 288 288 288 288 288 289 289 289 289 289 289
281 283 283 283 288 286 288 289 291 294 292 293 292 287 292 297 298 298 297 297 298 299 299 299 296 292 292 292 298 297 298 298 297 297 298 298 298 298 297 297 297 297 296 297 297 295 292 294 294 294 292 292 292 289 289 290 291 291 291 292 292 291 290 290 289 289 289 289 288 287 287 287 287 287 287 287 287 287 288 288 288 288 288 288 288 289 288
285 283 281 283 282 280 285 291 293 299 299 299 298 294 291 297 298 299 298 297 298 298 298 298 294 293 291 293 296 298 296 297 298 298 301 302 300 298 296 295 295 295 295 295 292 294 293 293 295 294 290 292 291 290 290 289 290 290 291 291 291 291 291 290 289 289 289 289 288 287 287 287 287 287 287 287 287 287 288 287 288 287 287 287 287 287 287
284 282 280 280 279 283 291 292 294 297 298 296 294 289 287 295 297 299 299 298 298 298 297 296 293 292 290 292 297 296 299 297 298 299 299 300 300 298 296 296 296 294 294 294 293 291 292 293 292 289 290 290 291 290 289 289 290 290 290 291 291 291 290 290 289 289 289 289 288 287 287 287 287 287 287 287 287 287 287 287 287 286 286 287 286 286 286
280 280 280 279 283 284 288 290 293 296 296 298 293 282 284 296 297 298 298 298 298 298 298 295 295 294 291 293 297 296 299 299 302 301 301 300 299 297 295 295 296 296 292 290 289 291 292 295 291 288 289 290 290 290 289 289 289 290 290 290 290 290 290 289 289 289 289 288 287 287 287 287 287 287 286 286 286 286 286 287 286 286 286 286 286 285 285
280 280 279 283 285 288 291 289 291 295 298 295 285 281 289 295 298 298 299 298 299 298 297 296 294 297 299 300 294 297 296 299 299 300 301 301 301 299 296 295 291 291 291 294 295 293 294 291 288 289 289 290 289 288 288 288 289 290 290 290 291 290 290 289 289 289 288 288 287 287 287 287 286 286 286 286 286 286 286 286 286 286 285 285 285 285 285
278 279 279 279 285 291 293 289 292 296 293 284 284 295 296 293 295 297 298 298 298 298 297 297 298 299 301 301 295 292 296 298 298 296 297 296 294 296 295 293 291 292 290 290 289 288 286 287 288 288 289 290 289 287 287 288 289 289 290 291 290 290 290 289 288 288 287 287 287 287 286 286 286 286 286 286 286 286 286 286 285 285 285 285 285 285 285
283 282 279 279 277 287 295 291 289 294 289 290 297 297 292 292 291 295 294 297 298 297 297 298 299 299 299 298 299 296 291 294 294 293 294 294 295 295 291 289 289 292 290 289 290 289 286 286 288 288 289 289 287 287 288 287 287 289 290 290 290 290 289 288 288 287 287 287 287 287 286 287 286 286 286 286 286 286 286 285 285 285 285 285 285 284 284
278 279 278 279 287 292 294 294 289 292 296 292 294 293 293 286 287 292 292 294 296 297 297 297 297 298 298 298 298 296 294 293 291 291 293 294 294 294 293 293 290 289 291 289 287 284 285 286 287 288 289 289 287 287 288 284 287 288 289 290 290 289 288 288 287 287 287 287 287 287 286 286 286 286 285 285 285 286 286 286 285 285 284 284 284 284 283
284 282 285 290 292 289 294 297 297 296 298 291 290 296 296 296 292 289 294 294 294 295 296 297 297 296 297 298 298 295 295 296 293 291 291 292 293 292 291 290 286 288 290 287 286 284 284 285 286 287 288 289 287 287 285 285 287 288 289 288 288 288 287 287 287 287 287 286 286 286 286 286 286 285 285 285 285 284 285 285 285 284 284 284 284 284 283
288 289 290 288 290 291 293 293 292 293 298 298 294 290 290 290 295 292 294 293 293 293 295 295 296 296 297 296 292 292 293 293 291 291 291 290 289 289 287 284 285 286 286 286 286 286 284 283 285 286 287 288 288 287 284 285 287 288 288 288 287 287 287 287 286 286 286 286 286 286 286 286 286 286 285 285 285 284 285 284 284 284 283 283 283 283 283
287 282 289 290 291 293 294 295 292 289 289 292 294 291 290 288 288 288 289 291 292 293 293 295 296 296 295 293 292 292 293 293 291 289 290 290 289 288 288 287 285 285 285 286 286 286 286 283 284 283 283 283 284 284 285 285 286 287 288 287 287 286 286 286 286 286 286 286 286 286 286 286 286 285 285 285 284 284 284 284 284 284 283 283 283 283 283
286 285 289 292 294 294 295 294 291 292 295 295 292 291 289 286 285 286 289 288 290 290 292 292 293 294 292 292 292 291 291 292 290 289 289 289 287 286 287 286 286 286 287 287 286 285 286 283 283 282 282 282 282 284 284 285 286 287 287 287 287 286 286 286 286 286 286 283 284 285 285 285 285 284 285 285 284 284 284 284 284 283 283 283 283 283 283
288 290 291 290 291 291 293 294 294 296 294 289 288 286 286 285 287 288 286 286 290 290 293 293 292 293 291 291 292 292 291 290 289 289 289 289 288 286 284 284 286 287 286 286 285 285 284 282 282 281 280 281 282 283 283 284 286 286 286 285 285 285 285 285 285 285 285 285 285 284 284 284 284 284 284 284 284 284 284 285 285 285 284 284 283 284 284
285 286 288 290 286 287 292 294 296 294 287 289 290 287 287 288 288 287 287 289 287 287 289 290 290 292 292 289 289 291 291 291 290 289 288 287 286 284 284 285 285 284 285 285 284 283 282 281 281 281 280 280 281 282 283 283 285 284 284 284 284 283 283 284 283 283 283 283 283 283 283 282 281 280 282 284 284 284 282 283 284 284 285 283 284 283 283
285 290 292 293 293 293 293 291 291 293 294 295 295 293 292 292 291 289 288 289 289 288 288 288 290 291 292 290 288 289 289 289 289 289 287 286 285 284 282 283 282 283 283 282 283 282 281 280 280 280 280 279 280 281 282 283 284 283 283 282 282 282 282 282 282 282 282 281 281 282 282 281 281 279 278 279 283 284 283 282 283 284 284 285 284 283 281
291 293 294 294 293 291 293 292 288 293 294 295 295 295 294 293 292 290 288 289 291 290 290 287 288 290 289 287 288 289 287 286 286 286 286 287 286 284 283 285 284 282 281 282 282 282 280 280 279 279 279 278 280 280 281 282 282 282 282 282 281 281 281 280 280 280 281 280 280 279 279 279 279 278 277 275 274 280 282 283 283 283 283 284 284 284 284
290 293 294 294 293 294 296 293 291 293 293 294 295 295 295 293 292 290 289 289 289 289 288 288 288 287 289 287 288 289 288 286 286 286 286 285 284 283 283 283 283 283 283 283 282 281 280 279 278 278 279 278 277 278 279 280 281 281 281 281 280 279 278 278 278 278 278 277 277 277 276 275 275 275 275 275 274 270 274 281 282 283 284 284 284 284 284
294 294 294 291 291 294 293 289 289 290 292 293 294 295 295 292 293 292 290 290 290 288 288 289 289 288 287 288 287 286 284 285 285 284 284 283 282 282 283 284 284 283 282 281 281 280 279 277 277 277 278 276 277 278 278 280 280 280 279 279 278 278 278 277 277 277 276 276 276 276 276 275 275 274 274 274 274 274 272 270 273 277 280 282 283 283 284
295 295 294 290 290 292 291 293 295 293 291 292 293 295 295 296 293 293 293 291 290 291 290 290 289 287 285 285 285 283 285 281 281 284 284 283 283 284 284 283 282 281 280 280 280 279 277 277 276 276 276 275 273 274 277 278 279 278 278 277 277 276 275 276 277 277 276 276 275 275 275 275 274 274 274 273 273 273 273 273 272 271 269 271 278 282 278
295 294 293 292 291 292 292 293 296 296 292 292 292 293 295 296 295 294 292 290 288 287 287 285 287 286 287 284 286 283 282 283 285 283 283 283 281 279 280 280 280 279 279 279 279 277 276 276 275 275 274 271 269 271 276 277 277 277 276 276 276 276 276 276 276 276 276 275 275 275 275 274 274 274 273 273 274 273 272 272 271 270 268 269 269 277 281
294 294 294 295 296 296 294 292 291 289 290 292 292 294 293 292 291 291 291 292 292 290 287 285 283 286 288 285 286 286 285 284 284 283 283 280 277 277 278 278 278 277 278 277 277 276 275 275 274 274 272 269 267 270 274 276 277 276 276 276 276 276 275 275 275 275 275 274 274 275 275 274 273 273 273 273 272 271 271 271 270 269 270 268 268 270 276
293 294 294 294 295 295 292 290 289 289 290 291 290 289 290 291 291 290 290 290 288 288 288 285 283 284 285 285 284 285 285 285 285 282 278 277 276 276 276 276 276 275 275 276 276 275 275 274 274 274 272 269 269 270 274 276 275 275 275 275 276 276 275 274 274 274 274 273 273 275 273 273 272 273 272 272 272 271 271 270 270 270 268 268 272 271 272
291 288 288 290 290 288 289 291 290 289 289 289 289 290 289 289 290 291 291 291 287 287 283 283 284 284 282 285 284 281 279 278 278 277 276 275 274 275 276 277 280 278 278 277 275 275 274 274 273 272 269 265 267 270 273 274 274 273 273 273 273 274 274 275 275 274 273 273 273 273 271 272 271 272 271 271 270 270 269 269 270 269 269 269 269 269 270
283 285 285 286 286 287 286 286 287 287 288 288 288 288 289 289 288 289 290 289 288 288 285 283 284 285 285 282 280 278 277 276 275 274 274 274 274 274 272 270 271 273 273 274 273 273 272 271 270 268 265 265 267 269 272 273 273 273 273 272 273 273 274 274 273 273 272 271 271 271 271 271 270 270 270 270 270 270 269 269 269 268 268 269 269 269 269
280 282 282 283 284 283 285 286 286 287 286 286 288 289 289 289 289 290 291 290 289 287 287 286 286 283 280 279 278 277 275 274 274 274 273 272 271 269 269 269 271 271 271 270 270 270 270 269 266 266 264 265 266 268 270 271 272 272 272 272 272 272 271 273 272 271 270 270 269 269 269 269 269 269 269 268 268 268 267 268 268 268 268 268 268 268 271
275 280 280 281 284 287 288 287 286 286 286 286 287 286 286 287 288 288 288 287 287 287 287 286 283 281 280 279 278 276 275 275 274 273 272 271 270 269 268 268 268 268 267 267 267 267 266 266 266 266 266 266 267 268 269 270 270 270 270 271 271 271 271 270 270 270 269 268 267 269 268 267 268 267 267 267 267 267 268 268 268 268 267 266 266 266 272
272 271 272 274 276 276 276 278 281 283 285 285 286 285 285 286 286 286 286 286 287 288 284 282 280 280 279 278 277 276 277 279 278 274 271 270 269 268 267 267 266 266 264 264 264 264 264 265 265 265 265 265 266 267 268 269 269 270 269 270 269 269 269 268 269 268 268 267 267 267 266 266 266 267 267 266 266 266 266 266 266 266 265 265 265 264 267
269 269 271 272 272 272 272 273 276 278 281 283 284 285 285 285 284 284 285 284 281 279 280 281 280 279 278 277 277 276 277 275 272 271 269 268 267 268 267 267 266 264 263 263 264 264 264 264 265 265 266 265 265 265 267 268 268 268 268 269 268 268 267 267 267 266 266 266 266 265 265 266 266 265 265 265 264 264 264 264 264 264 263 263 263 263 262
269 268 268 268 269 270 270 271 272 273 275 279 281 282 282 279 278 276 275 275 276 278 278 278 278 278 278 277 276 274 272 271 270 269 268 268 268 267 267 267 267 266 266 263 264 264 265 265 265 265 265 265 265 265 266 266 267 267 267 268 267 267 267 266 266 266 265 264 265 265 265 265 264 263 264 263 263 263 263 262 264 263 263 263 262 262 262
268 267 267 267 268 268 269 270 271 272 274 274 273 272 273 274 273 274 274 274 275 276 277 278 278 276 273 271 270 270 269 268 268 268 268 268 268 267 267 267 267 267 266 264 264 263 264 264 264 264 264 264 264 265 265 265 265 267 266 266 266 266 266 265 265 264 264 264 263 264 264 263 263 262 261 261 262 262 262 262 262 262 261 261 260 261 261
266 266 266 266 267 268 268 269 270 270 271 272 272 272 272 273 272 273 273 272 272 274 275 274 272 272 272 271 269 268 268 268 268 268 268 267 266 264 261 260 261 261 262 263 263 263 263 263 262 262 262 262 263 264 264 264 264 265 265 265 265 265 265 265 264 264 263 263 263 262 262 262 261 261 260 260 259 261 262 261 261 261 259 259 259 260 260
265 265 264 265 265 266 266 267 267 267 268 269 270 270 271 271 272 272 271 271 271 271 273 273 273 272 270 269 269 268 268 267 266 264 263 262 261 261 261 260 260 261 263 263 263 263 263 263 262 262 262 262 263 264 264 264 264 265 265 265 264 264 264 264 264 263 263 263 263 263 262 261 261 261 261 261 261 262 261 262 261 261 260 261 261 262 263
264 264 264 264 264 264 265 265 265 266 266 267 267 268 269 270 272 271 270 270 271 271 272 272 272 270 270 268 267 265 265 264 264 263 264 264 264 263 260 258 259 260 260 261 262 262 263 262 262 262 263 263 263 263 264 264 265 264 264 264 264 264 264 264 263 263 263 263 263 263 263 263 264 264 264 264 264 263 264 264 263 262 260 261 262 262 262
263 264 264 263 263 263 263 264 264 264 264 265 266 267 267 268 269 268 268 269 269 270 270 270 269 268 267 266 265 265 264 263 262 261 262 264 265 262 258 258 259 260 262 262 261 261 261 261 262 262 262 263 263 263 263 264 264 264 264 264 264 264 264 264 264 263 264 264 264 264 264 265 265 265 264 264 263 263 263 263 262 262 261 261 261 261 261
262 262 263 263 263 262 262 262 262 262 262 262 263 265 267 267 267 268 268 268 268 268 267 267 266 266 266 265 264 263 262 262 261 260 260 259 260 262 262 260 260 261 261 261 261 260 260 260 260 261 262 263 263 263 263 264 264 264 264 264 264 264 264 264 264 264 265 265 264 264 264 264 264 264 264 263 263 262 262 262 262 262 261 260 260 260 260
262 261 261 262 261 261 260 260 260 260 259 259 260 262 264 265 266 267 267 267 267 266 266 266 266 265 265 265 264 263 263 262 262 261 260 260 260 260 260 260 261 261 261 261 260 260 260 260 260 261 262 262 262 263 264 264 264 264 264 264 264 264 264 264 264 264 264 264 264 264 263 263 263 263 263 263 262 261 261 261 260 260 260 259 259 259 259
261 261 261 261 261 260 260 259 259 258 258 258 258 258 259 261 262 263 265 265 265 265 265 265 265 264 263 262 261 261 261 261 264 264 262 260 259 258 259 260 260 260 260 260 260 260 260 260 260 261 261 262 262 262 263 263 263 263 263 263 263 263 263 263 263 262 262 262 262 262 262 262 262 262 262 261 261 261 261 260 260 259 259 259 258 257 256
260 261 261 261 261 262 262 262 262 261 260 259 258 258 258 258 259 260 261 261 261 262 262 262 261 261 261 260 260 261 260 259 258 259 260 262 262 260 259 259 260 260 260 260 260 260 260 260 260 261 261 261 261 262 262 262 262 262 262 262 262 261 262 262 261 261 261 261 261 261 261 261 261 261 260 260 260 260 260 260 259 258 257 257 257 256 255
259 260 261 261 261 261 261 262 262 261 260 258 257 256 257 258 258 258 259 259 259 258 258 259 259 259 260 261 262 260 259 259 259 259 259 259 259 259 259 259 259 259 259 259 259 259 259 259 260 260 260 260 261 261 261 261 261 261 261 261 261 261 261 261 261 261 260 260 260 260 260 260 260 260 259 259 259 258 258 258 257 257 256 257 257 257 257
257 257 259 261 261 261 261 261 260 259 258 257 258 258 259 259 259 259 259 259 258 258 258 257 257 257 258 258 258 258 260 262 259 259 259 258 259 259 259 258 258 258 258 258 258 258 259 259 259 259 259 260 260 260 260 260 260 260 260 260 260 260 260 260 260 260 260 259 259 259 259 258 258 258 258 257 257 256 256 256 255 255 255 255 254 254 254
256 256 257 258 259 260 260 259 258 257 257 259 259 259 260 260 260 260 260 260 259 258 257 257 257 257 257 257 257 258 257 258 261 260 259 258 258 258 258 258 258 258 258 258 257 257 258 258 258 259 259 259 259 259 259 259 259 259 259 259 259 259 259 259 259 259 259 258 259 258 258 258 257 257 257 257 256 256 256 256 255 254 254 254 255 255 255
257 256 255 255 254 254 255 256 256 256 257 257 257 258 260 261 259 258 259 258 258 257 256 256 256 256 256 256 257 257 257 258 257 257 257 258 258 257 257 257 257 257 257 257 257 257 257 257 257 257 257 258 258 258 258 258 258 258 258 258 258 258 258 258 258 258 258 257 257 257 257 257 257 256 257 256 256 256 255 255 255 256 258 257 256 255 255
256 255 254 254 254 254 254 254 254 255 256 257 258 258 258 258 257 257 258 259 260 257 256 256 255 255 255 256 256 256 256 257 256 257 257 256 257 256 256 257 257 256 256 256 256 256 256 256 256 256 256 257 257 257 257 257 257 257 257 257 257 257 257 257 257 257 257 257 257 257 257 256 256 256 255 255 256 255 255 255 255 254 254 254 254 254 254
256 257 256 256 255 254 254 254 254 254 255 255 256 257 258 258 258 257 256 256 258 258 258 257 254 254 254 255 255 255 255 255 256 256 256 256 256 256 256 256 256 255 255 255 255 255 255 255 255 255 255 256 256 256 256 256 256 256 256 256 256 256 256 256 256 256 256 256 256 256 256 256 256 255 255 255 255 255 255 254 254 254 254 253 254 254 254
Wind_Speed
15 4 5 6 9 12 15 20 20 22 19 17 20 21 17 13 13 17 17 17 17 24 24 19 17 10 8 10 7 5 6 4 3 1 3 6 9 9 7 8 7 6 6 6 6 6 7 5 6 6 6 5 5 4 5 5 4 5 4 4 3 3 3 4 4 4 4 4 3 3 3 3 4 4 4 4 4 4 4 4 4 4 4 7 11 9 7
14 11 7 3 11 10 13 15 16 18 19 21 20 20 19 16 13 15 19 15 23 27 28 16 6 10 11 6 4 3 4 5 6 6 7 8 10 11 10 10 9 8 8 6 6 6 5 7 7 7 6 7 7 7 6 5 5 4 4 3 3 3 4 4 3 2 2 1 1 2 2 3 4 3 2 2 3 4 4 4 4 5 5 5 5 9 9
14 14 11 7 8 10 14 15 18 18 19 20 21 19 18 16 15 17 21 24 25 24 22 4 6 10 8 8 11 11 9 8 9 10 11 12 13 13 11 10 9 8 7 7 5 5 7 7 9 9 9 7 6 6 6 6 6 5 5 5 5 5 6 4 3 3 2 1 0 1 2 1 1 2 2 3 4 3 3 3 4 4 5 4 4 4 6
12 13 14 12 9 8 11 14 16 16 16 17 18 19 22 20 23 25 25 20 18 24 23 5 9 6 10 12 11 9 8 10 12 13 14 14 14 13 12 12 10 6 7 8 8 8 9 9 8 8 8 7 7 9 8 8 7 5 6 6 6 6 4 3 4 4 4 3 2 1 0 0 1 0 1 1 1 2 3 3 3 2 3 5 5 4 4
14 12 19 19 12 7 11 15 18 22 24 25 24 24 23 20 20 19 17 23 27 19 6 13 15 9 10 7 8 9 10 11 12 13 14 15 14 14 13 13 11 10 10 10 10 10 7 8 9 11 9 7 10 9 10 9 7 7 8 7 6 6 5 5 4 3 4 4 4 3 2 2 2 2 2 2 2 3 3 2 3 3 4 4 4 4 4
10 10 14 13 12 17 17 17 27 27 25 24 20 19 22 21 18 17 21 25 27 14 10 8 10 11 15 14 12 13 15 14 11 13 15 16 16 14 13 13 12 10 8 7 9 10 11 11 12 9 10 12 10 8 8 7 9 8 8 7 6 5 5 5 5 5 5 4 4 4 3 3 3 3 3 3 3 2 2 3 3 3 2 4 3 4 5
5 6 13 13 20 17 13 3 12 19 24 23 26 26 26 24 24 25 25 26 28 14 10 8 10 10 9 10 12 13 12 11 13 16 15 15 14 14 14 11 8 10 10 10 9 8 8 8 6 7 7 7 5 5 7 8 8 9 8 7 7 6 6 6 6 6 5 5 5 4 4 4 4 4 3 3 3 3 3 4 5 5 5 5 5 5 5
1 5 11 10 11 5 1 11 17 17 14 16 15 20 23 25 28 28 28 29 26 17 19 18 8 5 7 7 12 15 13 14 15 15 15 16 15 15 13 12 12 11 10 12 12 12 8 5 6 8 10 8 8 7 6 8 8 8 8 8 8 7 8 7 7 6 7 6 6 5 5 5 5 5 4 5 5 3 3 3 2 3 2 3 4 5 4
7 3 8 10 3 2 2 4 8 16 19 22 23 22 29 28 19 18 21 28 29 25 24 21 7 1 4 8 17 11 13 14 12 14 14 16 16 14 11 11 12 13 12 11 12 8 6 8 8 10 6 8 8 7 8 7 8 8 8 9 9 9 8 8 8 7 7 7 7 7 6 6 6 5 5 4 3 3 3 3 3 3 3 2 2 4 4
6 7 5 5 4 10 8 11 6 23 26 24 23 18 22 10 18 21 25 30 32 25 21 14 4 2 5 18 25 13 11 10 11 12 16 16 11 10 11 9 8 8 9 9 7 8 8 8 10 7 8 9 9 9 8 8 9 8 9 10 9 9 9 8 8 7 7 7 7 6 6 6 6 5 3 3 4 4 4 4 4 3 3 3 2 3 3
3 5 7 5 7 7 6 12 12 17 9 6 7 3 20 14 19 24 27 31 31 23 20 10 8 5 14 23 25 9 18 13 13 16 16 13 13 11 11 12 12 11 10 11 10 7 7 9 9 7 9 9 9 9 8 8 8 9 11 9 9 9 8 7 7 7 6 6 5 6 5 5 4 5 4 4 3 3 3 3 2 2 2 3 3 3 3
10 8 8 7 2 5 5 2 8 11 12 14 13 11 16 27 21 21 23 30 30 22 16 8 12 17 20 27 18 11 16 18 22 20 17 15 15 12 10 9 10 11 8 5 4 7 9 12 9 9 8 9 9 9 9 8 9 10 9 7 6 6 6 7 7 6 6 6 5 5 5 4 3 3 3 4 3 3 3 3 4 2 2 2 3 2 1
12 12 10 8 7 5 10 5 4 12 16 16 16 15 24 4 15 19 19 24 23 14 12 12 16 23 24 20 7 18 11 15 15 14 17 19 18 17 11 11 8 6 8 11 12 13 12 9 8 9 9 9 9 8 9 9 12 10 7 7 7 8 8 8 8 7 5 6 7 4 4 5 5 5 4 5 4 4 4 4 4 4 3 3 3 3 2
10 9 11 10 8 10 6 4 9 11 12 14 15 21 5 6 12 16 20 22 18 14 17 16 19 22 23 21 10 7 14 17 17 14 16 11 8 10 9 10 8 8 8 7 6 6 5 8 9 9 10 10 9 8 9 12 10 6 8 8 8 8 9 9 8 7 7 5 5 6 6 7 7 6 5 6 6 6 5 5 6 6 5 4 4 3 2
5 7 8 8 11 7 15 8 5 10 14 13 16 8 4 1 4 9 9 15 15 14 16 19 22 24 21 17 19 15 8 12 12 11 11 12 13 13 8 5 8 10 8 9 10 10 7 8 9 9 10 10 9 8 11 9 6 8 8 8 8 9 8 8 8 8 7 8 7 6 7 7 8 7 6 6 6 6 6 6 6 6 5 5 5 4 3
5 9 11 9 8 13 5 14 11 11 15 3 4 2 7 3 4 7 8 9 12 13 16 17 19 20 19 20 18 12 11 12 9 8 11 11 12 10 11 11 10 9 10 8 7 5 6 7 8 9 12 11 9 10 10 5 8 8 8 8 8 8 8 8 8 8 8 8 7 6 7 7 6 7 6 5 5 4 4 4 4 4 3 3 3 3 3
10 7 7 9 15 4 7 14 9 6 14 6 7 12 11 10 9 6 8 11 11 13 14 16 16 16 20 23 19 15 18 18 13 10 11 13 13 12 12 11 9 8 12 11 8 5 4 6 7 9 9 12 11 11 7 8 9 10 9 9 9 8 8 8 8 7 7 7 6 6 6 7 8 7 7 6 6 4 5 5 5 5 4 4 4 3 3
3 6 6 2 6 10 17 11 4 2 11 16 11 7 7 7 8 8 9 7 9 10 13 14 16 18 17 15 10 12 11 12 12 10 9 8 7 8 7 5 8 8 7 7 9 10 6 6 7 7 7 9 13 8 7 8 9 9 10 10 10 9 8 7 7 8 8 7 7 7 7 6 6 7 8 8 7 6 6 6 6 6 6 5 5 4 4
8 10 6 15 17 16 20 18 5 3 7 10 10 9 9 6 5 5 6 5 6 8 9 14 17 17 13 11 11 11 11 13 11 11 13 11 12 13 13 11 10 8 9 9 10 10 10 6 7 5 6 5 5 8 10 9 9 9 10 9 9 8 8 7 7 8 8 7 6 6 6 5 5 6 6 6 7 7 6 7 6 6 6 6 6 5 6
15 11 10 17 21 23 19 14 7 9 15 16 10 8 6 4 4 5 8 6 8 8 11 13 12 14 8 11 10 10 11 12 10 10 11 11 8 6 5 8 9 9 11 12 11 10 10 8 6 6 5 6 7 9 9 10 10 11 10 10 10 9 9 8 7 7 7 8 8 6 6 6 6 5 4 4 6 6 7 6 6 5 5 5 6 6 6
13 11 17 13 12 13 15 18 18 18 11 4 5 4 5 5 6 7 6 5 9 7 14 12 11 12 9 11 12 12 11 9 9 11 12 12 13 11 10 9 9 13 11 11 11 11 9 6 6 6 6 6 8 10 10 10 12 12 11 11 10 10 9 8 8 7 7 7 6 6 5 4 3 3 6 5 5 3 1 2 4 6 6 5 4 3 4
12 13 15 10 11 16 19 25 25 14 6 6 6 6 6 8 10 9 8 10 7 8 10 9 9 11 10 9 9 11 12 12 12 10 9 8 9 9 7 9 9 7 9 11 12 10 8 7 7 8 7 7 7 8 10 10 12 13 12 11 11 10 9 8 8 8 7 7 6 6 7 6 6 4 4 4 4 5 4 4 6 6 6 5 6 6 6
14 15 20 21 18 22 24 9 2 12 13 12 15 15 14 12 11 10 8 9 10 9 11 8 9 11 11 11 9 8 7 10 10 11 12 11 9 9 9 10 8 9 8 8 9 10 9 8 8 8 8 8 8 8 9 10 11 12 12 11 9 9 9 9 9 9 8 8 7 6 6 7 6 6 5 5 5 5 6 5 6 7 7 8 9 8 7
19 18 24 22 15 18 21 13 5 8 11 13 16 18 15 13 13 11 10 11 12 12 10 8 8 9 7 5 8 11 8 5 7 8 9 11 12 12 11 12 12 11 10 12 13 13 10 9 9 8 8 7 8 8 8 9 10 11 11 11 11 10 9 9 10 10 8 9 8 8 7 6 7 7 7 6 4 7 6 4 5 7 7 9 9 9 9
18 17 22 20 16 19 22 11 9 9 9 13 15 18 19 16 13 9 10 12 10 10 7 8 8 8 10 10 11 12 12 11 10 10 10 9 10 11 11 10 13 14 14 11 9 10 10 10 9 8 9 7 6 7 8 9 10 11 10 10 10 9 8 9 9 9 9 9 8 8 8 8 7 7 8 7 8 3 2 5 6 6 6 7 8 9 9
21 24 22 8 6 16 12 2 6 7 11 13 14 13 15 14 15 12 12 14 12 9 9 9 9 10 9 10 10 6 5 7 8 9 9 9 8 6 10 14 13 8 9 10 11 11 10 11 10 10 10 9 8 9 9 9 10 10 9 9 9 9 9 10 9 8 8 8 9 8 8 8 8 8 8 8 8 8 7 3 2 3 4 3 5 7 8
20 23 17 8 10 12 8 14 15 11 12 12 15 16 16 16 18 17 16 13 13 12 13 12 7 4 3 2 5 3 6 5 5 7 8 9 13 14 11 7 9 11 11 11 11 11 13 11 10 9 10 8 6 7 8 9 10 10 9 9 9 10 13 11 9 9 9 9 9 9 8 8 8 8 8 7 7 8 8 8 8 7 5 3 3 7 6
21 18 13 19 16 14 13 14 18 14 11 13 13 15 16 16 15 14 14 11 9 8 7 5 5 6 7 5 8 6 6 9 11 9 9 12 7 4 6 8 9 11 11 11 11 11 11 10 10 10 9 6 5 5 7 9 10 9 9 9 9 9 9 10 9 8 8 8 9 9 9 9 8 8 8 8 8 8 7 7 7 7 4 5 4 4 7
20 19 15 17 20 19 11 8 7 5 8 12 14 14 11 11 13 14 15 17 16 11 7 7 5 7 8 7 8 10 9 8 10 13 11 6 6 6 7 8 8 8 9 10 10 10 10 10 10 10 9 4 4 5 7 8 9 9 9 9 9 8 8 8 8 8 7 7 7 8 7 8 7 7 7 7 6 6 6 6 6 5 5 3 2 1 1
19 16 16 17 19 18 12 7 8 10 11 11 10 9 9 12 14 13 15 15 11 12 13 7 5 6 6 8 8 9 12 15 14 8 8 8 7 8 9 9 9 7 7 8 10 10 10 10 10 11 9 6 5 6 7 8 9 8 9 8 8 9 8 8 8 8 8 7 7 8 7 6 6 6 6 7 7 7 7 7 7 7 6 5 5 7 7
17 11 11 13 15 9 11 14 10 10 10 9 10 11 11 9 13 17 17 15 9 10 7 8 9 7 7 9 7 5 4 4 5 8 9 9 8 8 9 11 13 14 13 12 11 10 10 9 8 7 5 3 4 5 7 8 8 7 7 6 6 8 10 11 8 8 7 7 7 7 6 6 6 7 7 7 6 6 7 6 6 6 6 5 6 6 5
10 11 11 11 10 9 7 6 6 7 9 8 8 10 13 13 15 17 14 10 11 13 9 7 8 12 11 7 8 7 8 7 7 8 9 8 8 8 6 3 3 7 9 9 8 7 7 8 8 5 2 1 3 4 6 7 7 8 7 7 7 7 8 10 7 7 6 6 6 6 6 6 5 5 5 5 5 5 5 5 5 4 6 5 4 5 3
7 8 7 6 6 6 7 8 9 10 9 8 10 11 10 8 10 12 15 13 10 8 9 12 10 6 6 8 9 9 10 9 7 7 9 9 7 5 4 5 6 9 10 8 8 7 7 9 8 4 3 3 4 4 4 6 6 7 6 6 6 7 7 7 7 7 6 6 6 6 5 5 4 5 4 4 3 4 3 3 3 3 3 4 4 3 4
6 4 5 5 5 11 14 12 7 7 5 5 6 5 3 6 8 8 7 5 5 7 10 10 6 7 9 10 11 11 12 12 9 9 9 10 9 8 7 8 8 9 9 9 9 8 8 8 7 5 5 5 5 5 5 6 7 6 6 6 7 7 7 6 7 7 7 6 6 6 6 5 5 5 5 5 4 4 4 3 4 4 3 2 1 1 2
7 9 7 9 7 6 3 3 3 3 3 5 6 4 4 4 5 7 5 6 9 8 3 4 6 7 8 9 10 12 14 14 12 11 11 10 10 10 11 12 12 13 13 11 10 8 7 7 6 7 7 6 7 6 7 7 8 8 6 8 8 7 7 6 7 7 7 7 7 7 6 6 5 5 5 6 4 5 4 4 3 4 4 4 3 3 5
6 7 7 7 6 6 6 4 3 3 3 5 6 4 4 4 5 6 7 6 2 3 6 8 8 9 9 10 11 11 11 8 11 11 9 9 10 10 12 13 14 16 16 11 4 4 6 6 7 8 7 7 7 6 7 7 7 8 8 8 8 8 7 7 7 7 7 7 7 7 7 6 6 6 6 6 5 4 5 4 3 3 3 2 1 2 2
3 6 6 7 7 6 7 5 3 2 3 4 4 3 4 3 3 3 2 1 3 5 7 8 8 10 11 7 5 5 5 7 9 10 10 10 8 9 11 12 12 13 12 12 5 5 6 7 9 10 8 7 7 6 7 10 8 7 7 8 8 8 8 7 7 7 7 6 7 7 7 7 6 6 6 5 5 4 4 3 4 3 2 2 2 1 2
5 4 6 7 7 7 7 6 4 3 2 1 3 4 3 1 1 0 1 0 1 4 6 7 8 7 8 8 8 8 8 8 10 11 11 10 9 11 8 8 8 8 8 7 7 7 6 9 10 8 7 6 6 6 7 10 10 8 7 8 8 8 8 8 8 7 7 7 7 7 7 7 7 6 6 5 5 4 5 4 4 3 2 2 2 2 2
6 5 5 6 6 6 6 5 3 4 5 4 3 5 5 4 3 3 3 2 1 1 5 7 8 10 9 11 10 9 10 10 11 12 11 9 7 10 9 6 6 5 4 6 7 6 7 7 8 8 7 7 7 6 8 10 10 7 7 7 8 7 8 7 8 7 7 7 7 7 7 7 6 6 6 6 4 4 5 5 4 4 3 1 1 1 1
6 6 6 6 6 7 6 5 6 6 5 5 5 5 3 4 4 4 4 3 2 1 4 8 10 10 10 11 12 11 10 10 10 12 14 14 16 15 13 11 8 6 7 7 6 7 9 11 9 8 7 6 6 6 6 9 9 7 7 7 7 7 7 7 7 8 7 7 7 7 7 7 6 6 6 5 5 5 5 4 4 3 1 1 1 0 1
7 6 6 5 6 6 6 6 5 6 6 7 7 6 5 4 4 6 5 3 2 3 4 5 9 9 10 12 14 14 11 11 12 12 12 13 13 12 16 11 2 4 4 5 6 7 9 7 7 8 6 6 5 6 7 8 7 6 7 7 7 8 8 7 7 7 7 7 7 6 6 6 6 5 4 4 4 4 3 3 4 2 2 1 0 0 0
8 7 6 6 6 6 6 6 5 8 9 8 8 8 8 7 6 6 5 4 5 6 7 8 9 13 14 14 13 13 12 10 10 8 6 6 9 14 19 8 2 5 7 9 9 8 8 7 7 6 6 6 6 7 8 6 6 6 7 7 7 7 7 7 7 6 5 5 6 5 5 5 5 5 5 3 4 3 3 3 3 2 2 2 1 0 1
8 7 6 5 5 6 6 6 7 7 7 9 10 8 7 7 7 7 7 7 8 9 11 12 14 15 15 15 15 14 12 12 15 16 15 13 13 7 9 11 7 6 9 8 8 8 7 7 6 6 6 7 7 9 9 6 6 6 6 7 6 6 6 6 6 6 5 5 6 7 6 6 6 5 5 4 3 3 3 3 3 3 2 2 1 1 0
7 7 7 6 7 7 6 6 8 10 11 9 10 10 10 9 7 6 7 8 9 10 12 12 12 13 13 13 14 13 11 10 11 7 12 13 13 11 8 7 8 8 11 7 6 6 6 6 6 8 10 10 10 9 6 6 6 6 5 5 6 5 5 5 4 4 4 4 4 4 4 4 5 5 4 4 4 3 3 3 2 2 1 1 1 1 0
8 8 9 9 9 8 7 7 9 9 7 7 10 13 13 12 11 9 7 9 10 10 10 10 10 10 10 9 10 10 8 7 6 9 15 10 10 5 3 3 7 6 8 8 6 6 6 5 7 10 9 10 10 9 6 5 5 5 5 5 5 5 4 4 5 6 5 6 5 5 3 4 4 4 3 3 3 3 2 2 1 1 1 0 1 1 1
10 11 10 9 8 8 5 5 7 8 10 14 15 14 14 13 15 13 12 12 13 12 12 12 14 13 13 12 10 9 9 10 11 10 9 4 12 8 6 4 4 5 10 9 6 7 7 10 10 9 10 10 9 7 5 5 4 5 5 5 5 4 4 4 4 3 3 3 3 3 3 2 3 3 2 2 1 2 1 2 2 1 1 0 1 1 1
11 12 13 11 11 10 10 9 9 12 12 14 13 9 8 9 12 11 10 13 12 11 11 13 13 11 10 10 8 8 9 10 10 9 7 8 9 8 7 7 9 10 8 6 6 6 6 6 7 9 10 9 8 5 5 6 5 4 5 5 4 4 3 3 3 3 3 3 3 3 3 3 3 3 3 2 2 1 0 0 0 1 1 1 1 2 1
10 9 10 11 11 10 11 12 13 13 13 12 8 6 6 8 11 11 10 10 11 12 10 10 9 11 11 10 8 9 7 8 16 6 5 6 6 5 5 5 6 9 11 10 10 9 12 11 11 9 9 8 6 5 5 5 5 4 4 4 4 4 3 3 3 3 3 3 3 3 2 2 2 2 2 2 0 0 1 0 1 1 1 1 2 3 2
11 10 9 11 11 11 11 10 11 10 8 7 8 6 6 7 8 9 9 10 12 10 10 11 13 10 10 9 9 7 9 10 6 9 4 3 4 6 6 6 8 8 7 7 7 6 8 10 10 9 8 6 5 5 4 4 4 4 3 4 4 3 3 3 3 3 3 3 2 3 2 2 1 2 1 1 1 1 2 2 2 2 2 2 1 3 1
9 8 8 8 8 9 8 7 8 7 6 6 6 6 6 4 8 7 6 7 8 7 7 7 7 7 8 7 8 8 9 9 10 10 8 7 8 7 6 6 6 8 8 7 7 6 7 8 7 7 5 4 4 4 4 4 4 4 4 4 4 4 4 3 3 4 3 2 2 2 2 2 1 1 2 2 1 2 2 2 2 3 5 4 3 2 2
7 8 7 6 6 7 9 9 7 6 6 6 6 6 6 7 7 5 5 5 6 8 7 7 7 7 7 7 8 7 8 8 8 7 7 7 6 7 7 6 6 6 6 6 5 5 5 4 3 4 5 4 4 3 4 4 4 4 4 4 3 3 3 3 2 2 2 2 2 2 2 2 2 2 1 2 2 2 3 3 3 3 2 3 4 3 4
7 5 4 5 5 6 6 7 8 7 7 7 6 6 6 6 6 7 7 8 5 6 5 8 10 7 6 5 6 6 7 7 6 6 6 5 5 6 6 6 5 5 5 5 5 4 4 5 5 3 4 5 4 4 4 5 5 4 3 4 4 2 2 2 2 1 1 1 2 2 2 1 1 2 2 2 2 3 3 3 3 3 3 3 4 4 4
Wind_Direction
228 253 289 173 176 204 203 201 195 194 191 187 197 211 217 196 208 224 221 217 236 251 249 231 212 207 213 224 226 223 211 210 218 197 207 219 227 237 239 240 235 230 232 232 227 222 219 205 208 213 212 218 217 220 215 209 196 195 179 155 163 173 195 218 228 220 220 221 220 224 232 237 236 232 222 214 212 197 189 193 187 196 216 193 173 181 178
224 226 248 266 189 202 208 209 206 200 193 198 202 212 217 211 219 230 242 232 234 242 248 240 199 202 213 221 220 223 220 223 206 210 215 219 229 230 231 233 232 223 224 230 226 208 204 205 206 206 209 210 206 204 207 202 193 200 150 168 180 213 218 224 224 223 217 209 222 224 213 223 233 213 203 187 162 180 206 203 186 179 182 198 200 186 178
223 219 227 266 250 199 209 209 207 200 198 201 206 212 219 219 233 237 239 240 242 247 251 245 189 203 200 211 218 221 216 211 207 205 211 219 226 229 230 235 236 223 222 229 227 203 207 202 206 203 206 204 198 203 203 196 192 188 163 183 200 213 230 232 242 257 258 263 70 224 241 238 283 264 211 174 183 194 198 191 189 177 170 177 198 215 192
228 208 208 223 250 237 217 210 203 198 194 204 207 214 213 204 214 221 234 245 255 255 248 169 217 175 190 204 209 214 223 215 208 205 210 215 222 224 227 231 231 217 219 221 213 211 207 207 204 204 204 201 189 206 197 196 191 172 180 190 196 207 215 211 215 212 218 210 200 209 104 119 117 87 89 91 153 168 163 175 175 140 173 197 196 196 196
229 203 195 203 207 228 229 212 200 196 200 203 206 215 216 214 211 219 220 232 234 244 98 186 223 202 214 201 196 213 222 216 211 210 212 216 220 221 221 225 223 213 212 210 205 212 206 203 203 210 192 178 203 202 194 195 166 181 192 191 193 200 197 196 203 197 190 191 202 184 172 145 127 109 123 124 132 143 184 186 130 163 196 176 191 185 182
230 196 185 194 198 210 215 201 199 194 197 202 206 215 218 217 208 221 220 230 238 216 212 188 216 206 220 215 217 215 220 224 222 223 216 216 219 219 220 220 214 214 213 212 211 206 203 205 203 194 182 192 203 192 182 167 176 186 185 191 191 193 184 186 187 190 183 179 182 185 165 149 139 136 143 168 158 140 121 124 154 165 155 177 165 176 187
242 140 162 198 217 220 229 212 188 195 202 198 205 214 215 213 213 225 234 239 246 231 245 225 220 209 219 215 216 222 224 214 212 218 221 223 223 219 219 218 209 210 207 207 211 219 225 213 196 169 197 203 167 157 165 174 182 177 184 183 191 184 183 184 184 185 179 177 176 163 157 149 145 153 156 142 142 152 160 165 172 184 182 184 189 179 174
300 198 179 215 228 209 284 139 174 194 196 209 212 237 233 219 213 214 227 237 243 235 237 237 221 209 233 249 238 224 209 199 206 211 216 220 218 219 217 205 208 203 203 202 202 213 211 167 181 185 192 177 164 178 164 171 174 181 177 183 189 181 185 185 186 183 176 177 169 162 158 155 156 160 165 171 170 162 147 144 137 132 145 154 176 181 173
235 163 214 225 12 32 189 165 185 157 192 199 194 214 230 218 213 214 231 241 241 235 235 237 223 262 347 284 256 215 212 211 208 201 213 219 216 218 217 199 205 201 198 197 206 193 165 183 173 198 181 167 163 153 167 175 170 178 180 188 189 185 187 184 184 180 180 173 171 169 166 164 170 170 167 162 148 141 144 158 163 173 188 178 163 164 161
204 251 236 228 231 223 211 222 182 192 199 197 198 207 249 202 207 211 221 235 240 236 239 238 208 68 297 264 258 212 188 206 215 225 231 233 229 213 204 205 210 205 208 208 200 177 182 184 193 179 168 166 159 164 174 170 171 181 188 199 187 184 187 182 179 177 178 171 169 170 168 176 178 174 154 141 154 158 162 167 174 168 133 112 114 141 161
315 232 241 248 232 239 221 211 192 205 198 139 92 178 254 222 196 208 217 231 237 231 230 211 134 169 235 248 253 141 175 192 205 220 228 229 230 216 195 189 203 209 209 200 194 181 172 185 206 182 171 158 157 174 175 178 181 186 199 193 183 183 179 171 171 169 170 168 166 167 175 181 168 161 165 157 133 130 119 112 114 111 126 135 133 149 168
242 271 273 261 193 267 267 195 192 192 118 123 120 201 244 237 194 207 211 228 234 228 225 168 182 208 232 241 251 156 176 183 208 213 220 225 230 231 216 213 205 200 187 141 137 169 176 203 185 166 161 162 173 176 180 170 185 203 198 179 168 161 158 160 164 164 164 164 162 167 168 146 126 118 106 104 114 120 110 120 119 109 108 112 123 101 93
232 227 255 275 272 262 249 230 224 141 145 138 177 203 233 259 157 207 209 230 233 224 217 183 213 223 225 238 125 182 177 198 215 211 217 219 217 221 214 217 203 177 178 177 176 183 196 183 160 168 162 163 183 181 167 173 204 199 171 163 163 163 157 157 159 163 162 166 161 152 140 133 125 120 127 128 129 128 123 115 113 110 111 105 103 94 85
219 222 230 243 273 246 225 211 149 163 139 197 194 221 227 109 169 186 202 219 224 208 212 208 220 233 232 236 218 196 190 200 212 201 212 213 217 220 216 205 178 186 178 191 188 194 184 164 170 165 166 175 181 171 172 203 201 150 160 162 157 156 158 157 158 157 157 150 144 141 137 137 139 141 145 146 147 146 141 141 139 135 135 132 129 124 112
213 209 222 229 241 256 187 159 155 191 184 204 217 229 336 289 181 190 202 211 219 203 219 217 223 233 238 236 231 223 212 221 217 203 202 201 200 206 202 202 208 180 180 184 191 192 179 170 167 170 164 174 178 178 198 201 151 158 155 157 156 156 154 156 156 155 153 150 149 150 154 156 151 151 153 150 149 143 144 143 143 146 151 152 153 153 150
186 196 207 221 218 261 127 159 191 200 208 207 220 15 254 294 160 155 201 221 216 210 217 222 230 233 236 242 238 226 218 229 225 207 203 202 201 202 206 200 187 179 183 181 176 178 176 174 172 170 171 175 180 186 204 145 150 148 153 151 150 150 153 155 153 153 154 153 153 154 153 147 138 137 143 138 131 132 130 134 138 139 139 139 136 141 148
202 201 214 221 234 241 200 212 236 185 217 243 206 220 220 224 239 207 188 210 213 217 221 228 230 232 229 232 228 207 217 221 215 198 199 196 196 193 190 193 181 177 172 172 162 167 189 186 185 180 180 173 174 190 182 151 153 156 150 147 145 149 152 154 153 150 145 144 144 143 146 145 142 142 139 144 137 133 134 131 138 144 149 150 151 139 123
277 261 233 271 272 251 254 245 250 237 214 230 239 234 243 248 234 185 202 209 206 217 220 222 233 229 232 231 219 205 210 209 211 201 193 201 196 188 170 150 173 172 151 146 156 172 191 200 190 188 185 171 175 186 151 155 152 150 146 146 149 150 149 147 146 141 135 134 139 144 150 153 153 157 156 156 151 150 151 152 153 155 154 156 149 144 153
201 237 201 242 244 242 247 248 231 246 251 254 256 255 243 245 247 256 271 250 242 232 240 231 235 235 224 214 207 196 199 206 199 187 189 190 184 178 187 189 153 144 151 156 171 174 183 199 192 188 177 175 157 138 152 148 147 144 144 144 141 142 142 142 140 144 141 144 144 146 148 143 143 150 150 150 149 155 162 158 160 160 158 163 162 162 172
214 234 216 221 233 238 246 245 222 231 241 246 248 254 280 282 268 227 233 221 248 248 256 245 238 247 220 203 202 196 200 202 193 191 191 189 192 213 187 161 166 153 163 168 173 175 186 189 183 171 165 157 151 146 144 147 143 141 143 148 148 147 146 146 148 149 145 145 146 147 152 147 143 143 148 150 153 162 172 169 164 173 165 172 179 182 186
232 239 244 240 258 268 257 251 238 231 216 218 277 260 269 279 291 275 262 202 233 231 234 237 225 228 220 205 199 192 201 198 193 196 195 193 189 169 157 176 172 171 171 173 176 176 178 173 164 160 159 154 154 150 150 147 145 142 146 144 144 145 146 147 148 146 142 150 147 143 139 130 112 132 158 166 160 144 83 140 166 167 170 173 179 175 158
224 223 235 227 240 253 248 240 244 228 179 202 234 244 248 245 245 247 254 267 244 234 245 230 211 212 216 207 192 197 199 199 199 193 186 178 169 178 179 164 175 169 172 164 166 171 167 164 158 154 155 155 155 152 148 149 145 145 146 145 148 153 153 150 148 143 143 144 145 143 143 140 129 83 53 102 148 153 156 146 128 129 153 170 172 159 163
234 223 233 230 223 242 246 255 180 186 196 208 229 236 238 239 234 226 216 236 263 259 248 219 201 213 210 208 192 197 197 207 196 183 169 164 172 174 166 158 172 169 166 163 158 160 164 161 158 156 154 159 156 157 153 152 148 145 147 147 152 152 156 160 156 149 146 145 148 145 147 146 142 133 110 51 60 116 152 153 152 147 147 146 151 166 165
240 231 236 232 220 236 252 237 194 193 192 196 219 233 237 236 234 231 222 224 225 238 239 235 219 215 211 192 173 197 200 180 166 181 187 180 175 167 170 174 168 162 162 167 171 168 163 160 156 154 151 160 159 158 153 151 147 147 154 156 160 162 160 158 153 151 147 146 147 148 152 151 149 147 139 124 71 36 54 116 147 152 150 158 166 167 176
239 237 243 240 227 235 247 234 198 202 194 191 210 224 228 233 239 232 226 240 238 239 245 232 234 212 198 195 187 190 188 190 186 176 170 166 163 165 174 168 172 174 174 168 158 155 157 155 151 152 152 162 159 156 153 152 150 150 158 158 153 153 153 152 151 146 146 149 153 152 155 154 153 153 151 156 144 133 31 48 85 109 139 146 157 168 173
236 242 244 235 212 238 246 190 237 210 211 205 213 226 230 228 232 231 229 229 239 227 226 235 229 226 205 192 193 181 160 178 172 151 149 161 162 162 180 188 180 158 153 154 155 156 155 157 153 153 157 167 168 162 158 154 153 152 154 155 151 153 155 154 150 151 150 152 151 157 158 159 162 161 169 164 163 157 148 136 89 47 32 115 154 160 168
237 242 239 238 235 240 209 210 236 217 213 207 208 219 222 224 225 226 230 226 226 223 218 228 243 229 183 171 135 143 161 134 125 163 171 171 185 194 185 157 158 157 152 149 154 158 154 151 152 155 161 169 169 159 156 151 146 146 147 147 146 146 147 149 153 155 155 154 155 154 159 162 164 167 167 166 157 159 164 168 175 182 200 211 223 176 175
237 233 202 228 232 227 228 222 233 228 200 210 214 222 224 224 231 234 239 240 240 237 235 221 177 168 188 177 151 130 120 154 175 176 176 195 185 144 152 157 151 151 151 150 150 151 152 152 153 154 162 176 172 163 153 147 142 143 146 146 146 149 152 151 151 155 157 159 158 161 163 166 167 166 162 161 164 171 170 167 166 176 196 204 207 217 184
238 232 218 225 230 231 221 222 236 231 216 219 217 221 220 225 235 237 240 240 241 237 232 230 211 192 185 190 169 167 179 177 175 184 185 156 135 142 141 143 141 137 141 142 143 150 151 152 154 154 164 185 172 158 150 142 140 144 147 150 148 152 155 155 153 152 152 153 157 160 157 155 156 157 162 161 157 153 156 161 168 173 165 151 97 100 142
240 231 225 224 228 232 227 212 207 214 219 221 221 232 226 216 228 233 231 236 230 223 228 203 175 201 187 171 184 176 183 192 188 157 129 138 136 135 138 133 116 101 112 142 158 157 155 157 158 159 165 179 169 159 151 142 142 147 148 152 154 156 156 152 145 144 146 150 153 148 146 147 150 151 154 156 157 158 157 164 165 159 153 167 165 163 173
234 236 230 232 232 221 215 226 217 213 213 219 214 221 229 220 226 233 232 233 222 226 219 184 201 186 180 191 184 150 105 84 109 128 127 129 136 142 147 161 161 171 174 168 159 154 153 152 147 145 152 162 155 152 143 135 135 134 132 133 136 141 142 143 139 140 140 139 141 140 143 148 152 153 158 158 156 155 160 160 159 156 160 160 167 172 194
257 221 211 217 214 211 223 229 222 218 219 216 215 220 221 217 224 233 240 241 229 222 206 195 191 198 196 162 141 130 116 114 117 122 125 124 131 143 141 121 89 99 106 119 128 134 133 133 133 135 118 132 133 138 132 131 133 135 141 141 136 136 137 130 123 126 129 132 132 134 142 141 148 145 143 152 157 157 152 145 153 154 150 158 171 199 185
258 220 222 232 248 245 234 222 203 225 218 215 216 223 227 229 230 231 230 228 227 214 202 212 210 179 146 145 139 131 125 119 115 122 130 132 129 120 99 91 102 109 109 109 115 119 127 129 120 110 93 95 109 115 119 124 124 126 128 127 120 121 121 121 120 118 110 113 118 125 124 122 129 129 135 126 120 119 120 126 131 132 145 158 186 201 169
279 274 317 310 253 223 217 226 211 221 227 231 242 249 238 241 246 258 268 277 253 230 220 215 178 153 154 154 149 140 135 129 139 160 161 147 137 123 111 104 103 101 98 100 103 110 114 116 124 119 105 98 99 106 110 108 110 111 117 115 119 117 114 114 115 115 117 111 113 106 105 107 105 113 109 109 107 106 113 120 120 119 106 86 55 32 191
294 287 278 274 288 296 305 271 262 260 261 258 252 237 221 246 257 251 245 241 238 232 203 128 145 155 152 150 152 161 167 171 165 152 156 148 141 133 126 117 111 104 90 61 59 66 91 115 117 115 108 100 100 103 112 117 122 122 124 122 119 116 116 113 113 119 121 122 113 108 104 103 101 94 94 96 96 101 99 99 100 107 111 101 52 34 40
316 305 304 299 305 314 301 279 267 264 257 256 267 272 265 240 244 247 235 224 209 134 143 154 150 148 156 162 167 173 174 148 136 139 137 130 127 134 130 127 124 112 102 91 54 93 114 115 120 117 112 109 105 104 113 118 120 122 127 121 116 111 106 105 107 102 103 109 105 104 106 106 100 93 93 90 88 89 97 93 91 90 98 98 87 50 18
318 306 305 305 307 309 299 292 278 260 262 266 274 274 261 249 241 280 317 238 158 165 149 143 151 165 176 170 141 113 101 126 131 134 134 134 138 132 130 127 129 133 129 120 146 140 125 119 120 112 106 104 108 112 120 123 123 124 121 118 116 116 117 113 110 108 103 99 107 110 108 101 94 90 89 95 100 100 103 104 99 90 88 91 72 78 54
329 329 318 318 313 304 293 290 291 276 250 133 55 53 32 35 44 34 311 300 194 158 155 159 159 143 116 104 103 111 111 111 123 128 132 135 137 126 117 121 131 137 131 136 139 127 125 120 113 106 103 102 105 109 114 117 119 119 117 118 121 121 121 120 117 112 111 110 110 112 113 116 117 111 103 103 107 110 111 105 103 103 90 69 67 68 76
333 343 341 328 317 309 300 306 334 20 35 68 70 55 39 47 47 69 65 33 4 109 133 128 121 123 131 126 123 120 122 128 129 131 128 118 104 97 82 60 51 41 81 106 113 113 112 110 106 103 101 104 103 99 104 105 105 106 112 116 117 119 120 119 121 118 116 119 114 114 112 112 113 118 119 124 124 116 120 122 120 115 106 110 99 91 89
338 344 338 336 333 332 329 347 10 15 19 35 61 61 32 56 59 79 74 62 13 59 135 138 138 135 133 131 127 126 125 121 122 118 117 113 106 100 93 59 38 50 72 91 94 101 106 107 103 100 102 101 102 107 105 110 110 110 113 115 116 114 114 117 117 119 120 119 116 115 113 118 119 123 127 129 126 127 124 119 119 117 115 112 130 161 122
348 344 343 348 340 346 343 351 356 13 23 31 37 31 35 56 88 90 81 86 73 87 112 134 129 121 123 122 115 102 107 108 111 118 124 117 109 114 108 96 36 54 74 86 95 95 95 97 99 101 95 98 96 105 109 108 106 108 112 112 115 118 119 120 121 123 129 127 127 129 132 130 128 126 127 125 130 125 129 125 123 122 137 136 131 93 103
347 355 355 8 1 354 348 349 9 36 25 17 26 33 41 46 74 93 92 88 85 81 87 79 94 112 115 109 103 104 100 100 98 86 71 88 122 132 107 93 115 98 95 93 87 85 82 85 84 88 92 99 98 102 104 105 105 106 107 108 109 111 115 115 115 114 114 115 118 122 123 115 116 122 117 127 130 136 128 113 100 103 92 118 124 140 124
360 355 2 6 22 14 5 11 19 26 34 20 10 15 36 55 73 84 92 95 99 102 98 100 102 106 111 114 112 105 106 101 95 95 78 58 43 36 104 128 129 110 105 97 98 94 86 83 90 93 94 97 105 105 100 97 100 102 100 101 103 102 103 107 112 115 113 111 107 88 91 105 109 113 118 121 123 119 110 113 122 115 112 116 127 122 134
12 18 8 12 29 26 18 15 29 38 36 16 10 20 33 43 43 68 95 100 100 100 109 110 109 109 111 114 112 115 114 112 112 111 106 95 76 49 38 85 105 107 104 98 90 93 90 72 75 93 94 93 91 88 92 86 88 88 86 89 100 93 77 90 95 95 100 96 98 106 109 102 103 107 108 110 113 107 105 113 117 132 127 106 107 83 30
21 36 45 52 49 47 37 40 48 52 47 43 37 35 34 37 36 29 53 80 85 86 87 93 96 97 96 89 94 95 84 65 91 118 117 118 98 76 55 44 87 94 97 91 84 84 86 83 77 82 90 92 88 87 80 74 72 76 83 82 76 79 80 83 82 82 78 79 81 88 85 86 90 87 91 98 108 118 136 138 149 132 113 62 52 32 333
31 35 32 29 27 36 39 54 73 76 72 69 58 40 29 27 38 44 49 65 76 77 83 86 88 89 96 100 98 91 82 76 51 28 7 46 115 128 127 92 83 81 94 88 79 77 82 87 85 78 79 88 93 86 73 78 77 75 77 82 75 72 84 87 81 87 90 92 98 102 102 101 93 83 90 108 71 100 84 79 92 57 91 224 271 257 260
39 39 34 40 46 46 53 61 74 76 73 67 57 44 22 26 26 38 47 50 57 61 65 68 70 52 41 50 64 103 112 91 60 36 46 58 63 74 88 81 87 86 78 73 82 70 72 78 85 84 79 79 83 77 76 83 87 75 72 76 83 76 79 90 96 92 99 101 97 95 99 91 92 97 91 85 90 87 83 68 16 293 292 250 274 280 279
24 28 35 40 57 63 70 69 72 68 60 60 68 73 66 63 64 66 59 53 52 53 50 54 50 46 36 33 26 18 357 62 103 62 30 61 68 74 71 67 88 94 87 80 77 79 76 77 81 86 83 75 76 80 81 76 80 98 93 80 95 117 99 91 117 119 94 99 110 97 90 91 86 86 82 107 115 130 139 155 205 239 239 217 231 243 239
34 37 36 38 41 45 54 59 58 53 45 47 54 53 56 66 70 66 61 57 55 48 46 44 47 45 45 35 33 20 45 354 17 121 122 70 72 88 85 76 72 75 77 78 80 78 76 78 78 78 80 77 72 79 91 91 80 88 110 103 84 101 128 102 76 110 120 94 99 121 106 100 130 113 123 146 158 189 194 207 232 211 224 236 244 251 245
39 41 37 25 26 23 18 34 36 29 23 26 31 29 20 53 74 54 49 58 67 62 54 46 43 39 36 27 37 35 22 39 57 70 84 78 76 74 74 75 72 64 70 87 85 78 77 78 69 63 67 88 81 69 77 108 102 78 87 115 115 80 85 128 113 86 103 145 102 94 146 142 117 158 170 148 189 207 218 223 223 235 244 246 237 240 244
27 34 31 27 29 30 25 30 25 11 13 23 36 40 48 57 62 52 37 50 76 70 60 62 50 44 24 38 48 38 45 54 54 57 76 75 70 68 69 78 71 65 71 78 78 71 68 80 86 69 58 74 105 84 63 80 110 112 85 75 117 119 86 100 145 133 75 118 182 137 110 157 162 162 193 211 222 230 231 234 237 238 238 238 241 246 249
30 36 45 52 54 49 41 30 21 24 27 24 22 29 45 58 63 65 51 17 44 65 61 89 70 28 24 45 47 47 44 43 53 60 58 60 67 71 65 62 74 70 58 60 75 80 64 61 70 96 82 58 67 116 111 84 73 110 125 84 69 117 155 69 62 138 187 92 86 163 175 155 183 200 229 225 227 233 236 236 236 238 236 239 236 240 244